QPF
0.01 0.01 0.01 0.01 0.01 0.01 0.02 0.02 0.01 0.01 0.01 0.01 0.01 0.01 0.01 0.01 0.02 0.03 0.04 0.04 0.05 0.05 0.03 0.04 0.06 0.05 0.07 0.08 0.09 0.09 0.09 0.10 0.11 0.11 0.11 0.10 0.11 0.10 0.07 0.05 0.04 0.04 0.04 0.04
0.01 0.01 0.00 0.00 0.01 0.01 0.02 0.02 0.01 0.01 0.01 0.01 0.01 0.01 0.01 0.01 0.01 0.02 0.03 0.03 0.03 0.03 0.02 0.03 0.06 0.05 0.07 0.08 0.08 0.08 0.06 0.07 0.08 0.09 0.12 0.12 0.14 0.12 0.08 0.06 0.04 0.04 0.04 0.04
0.01 0.00 0.00 0.00 0.00 0.01 0.01 0.01 0.01 0.01 0.01 0.01 0.01 0.01 0.01 0.01 0.01 0.01 0.01 0.02 0.03 0.02 0.02 0.01 0.03 0.04 0.05 0.06 0.07 0.08 0.06 0.06 0.06 0.08 0.10 0.10 0.14 0.17 0.14 0.10 0.07 0.04 0.04 0.03
0.00 0.00 0.00 0.00 0.00 0.01 0.01 0.01 0.02 0.02 0.01 0.01 0.01 0.01 0.01 0.01 0.01 0.01 0.01 0.01 0.01 0.02 0.02 0.01 0.02 0.02 0.03 0.04 0.04 0.05 0.04 0.04 0.06 0.08 0.09 0.09 0.11 0.14 0.16 0.16 0.13 0.07 0.05 0.03
0.00 0.00 0.00 0.00 0.00 0.01 0.01 0.01 0.01 0.01 0.01 0.01 0.01 0.01 0.00 0.00 0.01 0.01 0.00 0.00 0.01 0.01 0.01 0.01 0.01 0.02 0.02 0.02 0.02 0.02 0.02 0.03 0.04 0.06 0.07 0.07 0.09 0.11 0.11 0.12 0.15 0.11 0.05 0.03
0.01 0.00 0.00 0.00 0.00 0.00 0.00 0.00 0.01 0.01 0.01 0.01 0.00 0.00 0.00 0.00 0.00 0.00 0.00 0.00 0.00 0.00 0.00 0.01 0.01 0.01 0.01 0.01 0.00 0.01 0.01 0.01 0.02 0.02 0.03 0.04 0.06 0.08 0.08 0.08 0.12 0.15 0.08 0.04
0.01 0.00 0.00 0.00 0.00 0.00 0.00 0.01 0.01 0.01 0.01 0.01 0.00 0.00 0.00 0.00 0.00 0.00 0.00 0.00 0.00 0.00 0.00 0.00 0.00 0.01 0.01 0.00 0.00 0.00 0.01 0.01 0.01 0.01 0.01 0.01 0.02 0.04 0.07 0.06 0.08 0.13 0.13 0.09
0.01 0.01 0.00 0.00 0.00 0.00 0.00 0.00 0.01 0.01 0.00 0.00 0.00 0.00 0.00 0.00 0.00 0.00 0.00 0.00 0.00 0.00 0.00 0.00 0.00 0.00 0.01 0.01 0.00 0.00 0.00 0.00 0.00 0.00 0.01 0.01 0.01 0.01 0.03 0.04 0.04 0.07 0.11 0.11
0.01 0.01 0.00 0.00 0.00 0.00 0.01 0.00 0.01 0.01 0.00 0.00 0.00 0.00 0.00 0.00 0.00 0.00 0.00 0.00 0.00 0.00 0.00 0.00 0.00 0.00 0.00 0.00 0.00 0.00 0.00 0.00 0.00 0.00 0.01 0.01 0.01 0.01 0.01 0.02 0.02 0.03 0.05 0.07
0.00 0.00 0.00 0.00 0.00 0.00 0.00 0.01 0.01 0.01 0.01 0.00 0.00 0.00 0.00 0.00 0.00 0.00 0.00 0.00 0.00 0.00 0.00 0.00 0.00 0.00 0.00 0.00 0.00 0.00 0.00 0.00 0.00 0.00 0.01 0.01 0.01 0.01 0.01 0.01 0.01 0.02 0.02 0.04
0.00 0.00 0.00 0.00 0.00 0.00 0.01 0.01 0.01 0.01 0.01 0.01 0.01 0.00 0.00 0.00 0.00 0.00 0.00 0.00 0.00 0.00 0.00 0.00 0.00 0.00 0.00 0.00 0.00 0.00 0.00 0.00 0.00 0.00 0.00 0.00 0.00 0.00 0.00 0.00 0.00 0.00 0.01 0.02
0.00 0.00 0.01 0.00 0.00 0.00 0.00 0.01 0.01 0.01 0.01 0.01 0.01 0.00 0.00 0.00 0.00 0.00 0.00 0.00 0.00 0.00 0.00 0.00 0.00 0.00 0.00 0.00 0.00 0.00 0.00 0.00 0.00 0.00 0.00 0.00 0.00 0.00 0.00 0.00 0.00 0.00 0.00 0.01
0.00 0.01 0.01 0.01 0.00 0.00 0.00 0.00 0.00 0.01 0.01 0.01 0.01 0.00 0.00 0.00 0.00 0.00 0.00 0.00 0.00 0.00 0.00 0.00 0.00 0.00 0.00 0.00 0.00 0.00 0.00 0.00 0.00 0.00 0.00 0.00 0.00 0.00 0.00 0.00 0.00 0.00 0.00 0.00
0.00 0.00 0.01 0.01 0.01 0.00 0.00 0.00 0.00 0.01 0.01 0.01 0.00 0.00 0.00 0.00 0.00 0.00 0.00 0.00 0.00 0.00 0.00 0.00 0.00 0.00 0.00 0.00 0.00 0.00 0.00 0.00 0.00 0.00 0.00 0.00 0.00 0.00 0.00 0.00 0.00 0.00 0.00 0.00
0.01 0.01 0.00 0.00 0.00 0.00 0.00 0.00 0.00 0.01 0.01 0.01 0.01 0.00 0.00 0.00 0.00 0.00 0.00 0.00 0.00 0.00 0.00 0.00 0.00 0.00 0.00 0.00 0.00 0.00 0.00 0.00 0.00 0.00 0.00 0.00 0.00 0.00 0.00 0.00 0.00 0.00 0.00 0.00
0.01 0.01 0.01 0.00 0.00 0.00 0.00 0.00 0.00 0.00 0.00 0.01 0.00 0.00 0.00 0.00 0.00 0.00 0.00 0.00 0.00 0.00 0.00 0.00 0.00 0.00 0.00 0.00 0.00 0.00 0.00 0.00 0.00 0.00 0.00 0.00 0.00 0.00 0.00 0.00 0.00 0.00 0.00 0.00
0.01 0.01 0.02 0.01 0.00 0.00 0.00 0.00 0.00 0.00 0.00 0.00 0.00 0.00 0.00 0.00 0.00 0.00 0.00 0.00 0.00 0.00 0.00 0.00 0.00 0.00 0.00 0.00 0.00 0.00 0.00 0.00 0.00 0.00 0.00 0.00 0.00 0.00 0.00 0.00 0.00 0.00 0.00 0.00
0.01 0.01 0.03 0.02 0.01 0.01 0.00 0.00 0.00 0.00 0.00 0.00 0.00 0.00 0.00 0.00 0.00 0.00 0.00 0.00 0.00 0.00 0.00 0.00 0.00 0.00 0.00 0.00 0.00 0.00 0.00 0.00 0.00 0.00 0.00 0.00 0.00 0.00 0.00 0.00 0.00 0.00 0.00 0.00
0.00 0.01 0.03 0.03 0.02 0.01 0.00 0.00 0.00 0.00 0.00 0.00 0.00 0.00 0.00 0.00 0.00 0.00 0.00 0.00 0.00 0.00 0.00 0.00 0.00 0.00 0.00 0.00 0.00 0.00 0.00 0.00 0.00 0.00 0.00 0.00 0.00 0.00 0.00 0.00 0.00 0.00 0.00 0.00
0.00 0.01 0.03 0.04 0.03 0.02 0.01 0.00 0.00 0.00 0.01 0.01 0.01 0.01 0.00 0.00 0.01 0.00 0.00 0.00 0.00 0.00 0.00 0.00 0.00 0.00 0.00 0.00 0.00 0.00 0.00 0.00 0.00 0.00 0.00 0.00 0.00 0.00 0.00 0.00 0.00 0.00 0.00 0.00
0.00 0.01 0.02 0.02 0.03 0.02 0.01 0.00 0.00 0.01 0.02 0.01 0.00 0.00 0.01 0.01 0.01 0.01 0.00 0.00 0.00 0.00 0.00 0.00 0.01 0.01 0.00 0.00 0.00 0.00 0.00 0.00 0.00 0.00 0.00 0.00 0.00 0.00 0.00 0.00 0.00 0.00 0.00 0.00
0.01 0.01 0.02 0.02 0.03 0.02 0.01 0.01 0.01 0.02 0.01 0.01 0.00 0.01 0.01 0.01 0.01 0.00 0.00 0.00 0.00 0.00 0.00 0.01 0.00 0.00 0.00 0.00 0.00 0.00 0.00 0.00 0.00 0.00 0.00 0.00 0.00 0.00 0.00 0.00 0.00 0.00 0.00 0.00
0.01 0.02 0.02 0.03 0.03 0.02 0.02 0.02 0.02 0.01 0.01 0.01 0.01 0.01 0.01 0.01 0.00 0.00 0.00 0.00 0.00 0.00 0.00 0.00 0.00 0.00 0.00 0.00 0.00 0.00 0.00 0.00 0.00 0.00 0.00 0.00 0.00 0.00 0.00 0.00 0.00 0.00 0.00 0.00
0.02 0.01 0.02 0.02 0.02 0.02 0.02 0.02 0.01 0.01 0.01 0.01 0.01 0.01 0.01 0.00 0.00 0.00 0.00 0.00 0.00 0.01 0.01 0.01 0.01 0.01 0.01 0.01 0.00 0.00 0.00 0.00 0.00 0.00 0.00 0.00 0.00 0.00 0.00 0.00 0.00 0.00 0.00 0.00
0.01 0.01 0.01 0.02 0.01 0.01 0.01 0.01 0.01 0.01 0.01 0.01 0.01 0.01 0.01 0.01 0.01 0.01 0.00 0.00 0.00 0.00 0.00 0.01 0.01 0.01 0.01 0.01 0.01 0.00 0.00 0.00 0.00 0.00 0.00 0.00 0.00 0.00 0.00 0.00 0.00 0.00 0.00 0.00
0.01 0.01 0.02 0.01 0.01 0.01 0.01 0.00 0.00 0.00 0.00 0.00 0.00 0.00 0.01 0.01 0.01 0.01 0.00 0.00 0.00 0.00 0.01 0.01 0.01 0.01 0.00 0.00 0.00 0.00 0.00 0.00 0.00 0.00 0.00 0.00 0.00 0.00 0.00 0.00 0.00 0.00 0.00 0.00
MSLP
1016.11 1016.05 1015.93 1015.78 1015.61 1015.41 1015.20 1014.96 1014.66 1014.30 1013.85 1013.30 1012.66 1011.96 1011.25 1010.57 1009.98 1009.54 1009.28 1009.20 1009.31 1009.58 1009.99 1010.48 1011.03 1011.60 1012.18 1012.77 1013.35 1013.94 1014.53 1015.13 1015.72 1016.28 1016.81 1017.28 1017.69 1018.03 1018.31 1018.54 1018.74 1018.92 1019.08 1019.25
1015.66 1015.61 1015.54 1015.46 1015.37 1015.27 1015.14 1014.97 1014.70 1014.34 1013.84 1013.23 1012.52 1011.75 1010.98 1010.29 1009.73 1009.36 1009.20 1009.24 1009.48 1009.86 1010.34 1010.88 1011.42 1011.96 1012.49 1013.00 1013.52 1014.06 1014.62 1015.20 1015.79 1016.36 1016.88 1017.35 1017.74 1018.05 1018.29 1018.48 1018.65 1018.81 1018.98 1019.16
1015.19 1015.14 1015.10 1015.09 1015.09 1015.09 1015.07 1014.98 1014.78 1014.44 1013.93 1013.28 1012.50 1011.66 1010.83 1010.11 1009.55 1009.21 1009.12 1009.25 1009.57 1010.04 1010.58 1011.14 1011.69 1012.20 1012.67 1013.13 1013.60 1014.10 1014.63 1015.21 1015.79 1016.37 1016.91 1017.37 1017.75 1018.04 1018.25 1018.41 1018.55 1018.69 1018.86 1019.05
1014.77 1014.71 1014.69 1014.72 1014.80 1014.91 1014.99 1015.00 1014.88 1014.58 1014.09 1013.41 1012.58 1011.68 1010.79 1010.02 1009.43 1009.09 1009.02 1009.19 1009.57 1010.08 1010.66 1011.24 1011.78 1012.27 1012.71 1013.12 1013.55 1014.02 1014.54 1015.11 1015.71 1016.30 1016.85 1017.32 1017.70 1017.98 1018.17 1018.31 1018.43 1018.56 1018.72 1018.91
1014.49 1014.40 1014.37 1014.42 1014.55 1014.73 1014.90 1015.00 1014.96 1014.72 1014.25 1013.57 1012.72 1011.77 1010.83 1009.99 1009.36 1009.00 1008.91 1009.09 1009.47 1010.00 1010.60 1011.18 1011.71 1012.18 1012.59 1012.98 1013.38 1013.82 1014.33 1014.90 1015.51 1016.12 1016.69 1017.18 1017.57 1017.85 1018.04 1018.17 1018.28 1018.40 1018.55 1018.74
1014.39 1014.24 1014.18 1014.22 1014.36 1014.58 1014.81 1014.97 1015.00 1014.81 1014.39 1013.73 1012.87 1011.89 1010.91 1010.03 1009.35 1008.94 1008.81 1008.97 1009.34 1009.85 1010.44 1011.01 1011.53 1011.98 1012.37 1012.73 1013.11 1013.54 1014.04 1014.60 1015.22 1015.84 1016.43 1016.94 1017.34 1017.64 1017.84 1017.98 1018.09 1018.20 1018.35 1018.53
1014.46 1014.25 1014.13 1014.13 1014.25 1014.46 1014.71 1014.91 1014.98 1014.85 1014.47 1013.84 1013.01 1012.03 1011.03 1010.12 1009.41 1008.95 1008.78 1008.89 1009.23 1009.71 1010.27 1010.82 1011.32 1011.74 1012.11 1012.45 1012.80 1013.21 1013.69 1014.25 1014.86 1015.49 1016.09 1016.61 1017.04 1017.35 1017.57 1017.72 1017.84 1017.96 1018.10 1018.29
1014.66 1014.39 1014.20 1014.13 1014.20 1014.37 1014.60 1014.81 1014.91 1014.82 1014.49 1013.92 1013.12 1012.18 1011.20 1010.30 1009.56 1009.07 1008.87 1008.93 1009.21 1009.65 1010.17 1010.68 1011.15 1011.55 1011.89 1012.21 1012.53 1012.91 1013.37 1013.90 1014.49 1015.11 1015.70 1016.23 1016.67 1017.00 1017.24 1017.41 1017.54 1017.67 1017.82 1018.01
1014.92 1014.60 1014.35 1014.21 1014.20 1014.32 1014.51 1014.70 1014.80 1014.74 1014.46 1013.94 1013.22 1012.34 1011.41 1010.54 1009.82 1009.33 1009.10 1009.12 1009.36 1009.75 1010.22 1010.69 1011.12 1011.48 1011.79 1012.07 1012.36 1012.71 1013.12 1013.62 1014.18 1014.77 1015.34 1015.86 1016.30 1016.65 1016.89 1017.08 1017.22 1017.36 1017.52 1017.71
1015.19 1014.83 1014.53 1014.34 1014.26 1014.31 1014.44 1014.59 1014.68 1014.63 1014.39 1013.93 1013.29 1012.50 1011.65 1010.85 1010.18 1009.71 1009.47 1009.47 1009.67 1010.02 1010.43 1010.86 1011.24 1011.57 1011.85 1012.09 1012.35 1012.65 1013.02 1013.46 1013.97 1014.52 1015.06 1015.56 1015.98 1016.32 1016.58 1016.77 1016.92 1017.07 1017.22 1017.41
1015.40 1015.05 1014.74 1014.50 1014.37 1014.35 1014.42 1014.51 1014.55 1014.49 1014.28 1013.88 1013.31 1012.62 1011.88 1011.16 1010.57 1010.15 1009.93 1009.93 1010.11 1010.42 1010.79 1011.18 1011.53 1011.82 1012.06 1012.28 1012.49 1012.75 1013.07 1013.46 1013.92 1014.41 1014.90 1015.36 1015.76 1016.09 1016.34 1016.52 1016.67 1016.81 1016.95 1017.12
1015.55 1015.24 1014.94 1014.69 1014.52 1014.44 1014.43 1014.44 1014.43 1014.33 1014.11 1013.75 1013.25 1012.65 1012.01 1011.40 1010.90 1010.54 1010.38 1010.39 1010.57 1010.86 1011.21 1011.57 1011.89 1012.17 1012.39 1012.58 1012.77 1013.00 1013.27 1013.61 1014.01 1014.45 1014.89 1015.30 1015.67 1015.97 1016.19 1016.36 1016.49 1016.61 1016.73 1016.86
1015.64 1015.40 1015.14 1014.89 1014.70 1014.56 1014.46 1014.38 1014.28 1014.12 1013.87 1013.51 1013.05 1012.53 1011.98 1011.47 1011.07 1010.80 1010.69 1010.75 1010.95 1011.24 1011.59 1011.94 1012.26 1012.53 1012.75 1012.94 1013.12 1013.33 1013.57 1013.87 1014.22 1014.60 1015.00 1015.36 1015.69 1015.95 1016.15 1016.29 1016.40 1016.48 1016.56 1016.65
1015.69 1015.52 1015.31 1015.09 1014.87 1014.67 1014.48 1014.29 1014.08 1013.83 1013.51 1013.12 1012.68 1012.20 1011.73 1011.31 1011.00 1010.82 1010.79 1010.90 1011.14 1011.47 1011.84 1012.21 1012.54 1012.84 1013.08 1013.28 1013.48 1013.68 1013.91 1014.19 1014.50 1014.84 1015.19 1015.51 1015.79 1016.02 1016.19 1016.30 1016.37 1016.41 1016.45 1016.50
1015.70 1015.61 1015.45 1015.24 1015.00 1014.73 1014.45 1014.14 1013.80 1013.44 1013.03 1012.58 1012.12 1011.66 1011.24 1010.91 1010.68 1010.59 1010.64 1010.82 1011.12 1011.49 1011.90 1012.31 1012.69 1013.02 1013.31 1013.55 1013.77 1013.99 1014.23 1014.49 1014.78 1015.09 1015.40 1015.69 1015.93 1016.13 1016.27 1016.35 1016.39 1016.39 1016.39 1016.39
1015.67 1015.63 1015.50 1015.30 1015.03 1014.69 1014.31 1013.88 1013.42 1012.93 1012.42 1011.91 1011.41 1010.96 1010.58 1010.30 1010.15 1010.14 1010.27 1010.53 1010.89 1011.33 1011.80 1012.26 1012.70 1013.09 1013.42 1013.72 1013.98 1014.23 1014.48 1014.74 1015.02 1015.31 1015.59 1015.84 1016.06 1016.23 1016.35 1016.41 1016.42 1016.40 1016.36 1016.32
1015.57 1015.54 1015.42 1015.21 1014.89 1014.50 1014.03 1013.49 1012.92 1012.33 1011.73 1011.16 1010.64 1010.19 1009.84 1009.61 1009.53 1009.60 1009.80 1010.13 1010.57 1011.06 1011.59 1012.12 1012.61 1013.06 1013.46 1013.80 1014.10 1014.38 1014.65 1014.92 1015.19 1015.46 1015.71 1015.95 1016.15 1016.30 1016.40 1016.45 1016.45 1016.41 1016.35 1016.29
1015.35 1015.29 1015.15 1014.91 1014.56 1014.10 1013.57 1012.97 1012.33 1011.67 1011.03 1010.43 1009.90 1009.47 1009.16 1008.99 1008.97 1009.10 1009.38 1009.77 1010.26 1010.82 1011.40 1011.98 1012.52 1013.02 1013.46 1013.85 1014.19 1014.49 1014.77 1015.03 1015.29 1015.54 1015.78 1015.99 1016.18 1016.32 1016.41 1016.46 1016.46 1016.43 1016.36 1016.29
1014.97 1014.85 1014.66 1014.37 1013.98 1013.50 1012.94 1012.32 1011.67 1011.01 1010.38 1009.80 1009.31 1008.93 1008.68 1008.57 1008.62 1008.81 1009.14 1009.58 1010.12 1010.71 1011.33 1011.94 1012.52 1013.04 1013.51 1013.92 1014.28 1014.59 1014.86 1015.12 1015.35 1015.58 1015.80 1016.00 1016.17 1016.31 1016.41 1016.46 1016.47 1016.45 1016.40 1016.32
1014.40 1014.20 1013.93 1013.60 1013.19 1012.71 1012.17 1011.59 1010.99 1010.40 1009.84 1009.35 1008.95 1008.65 1008.48 1008.45 1008.56 1008.81 1009.18 1009.65 1010.21 1010.81 1011.44 1012.06 1012.65 1013.18 1013.66 1014.07 1014.42 1014.72 1014.97 1015.21 1015.42 1015.62 1015.81 1015.99 1016.16 1016.29 1016.40 1016.47 1016.49 1016.49 1016.45 1016.39
1013.66 1013.35 1013.01 1012.63 1012.22 1011.77 1011.29 1010.81 1010.32 1009.86 1009.45 1009.09 1008.82 1008.65 1008.58 1008.64 1008.81 1009.11 1009.50 1009.99 1010.54 1011.14 1011.76 1012.36 1012.93 1013.45 1013.91 1014.30 1014.63 1014.90 1015.13 1015.33 1015.51 1015.68 1015.85 1016.01 1016.16 1016.29 1016.41 1016.49 1016.54 1016.55 1016.53 1016.48
1012.78 1012.35 1011.93 1011.52 1011.12 1010.73 1010.36 1010.01 1009.69 1009.41 1009.17 1009.00 1008.90 1008.87 1008.92 1009.07 1009.31 1009.64 1010.05 1010.54 1011.07 1011.64 1012.22 1012.79 1013.32 1013.81 1014.23 1014.59 1014.89 1015.13 1015.33 1015.49 1015.64 1015.77 1015.91 1016.05 1016.19 1016.33 1016.44 1016.53 1016.60 1016.62 1016.61 1016.57
1011.82 1011.28 1010.79 1010.35 1009.98 1009.66 1009.41 1009.22 1009.09 1009.01 1008.99 1009.01 1009.09 1009.22 1009.40 1009.64 1009.94 1010.30 1010.71 1011.18 1011.68 1012.21 1012.74 1013.26 1013.75 1014.20 1014.58 1014.90 1015.17 1015.37 1015.53 1015.67 1015.78 1015.89 1016.01 1016.13 1016.25 1016.38 1016.49 1016.59 1016.65 1016.69 1016.68 1016.65
1010.84 1010.21 1009.65 1009.20 1008.86 1008.62 1008.50 1008.47 1008.53 1008.66 1008.84 1009.06 1009.31 1009.59 1009.89 1010.21 1010.56 1010.94 1011.35 1011.79 1012.26 1012.74 1013.23 1013.70 1014.14 1014.54 1014.89 1015.18 1015.41 1015.58 1015.72 1015.83 1015.92 1016.01 1016.10 1016.20 1016.31 1016.42 1016.53 1016.62 1016.68 1016.72 1016.71 1016.67
1009.91 1009.20 1008.60 1008.14 1007.83 1007.68 1007.67 1007.80 1008.03 1008.33 1008.69 1009.08 1009.48 1009.89 1010.29 1010.68 1011.07 1011.46 1011.87 1012.29 1012.72 1013.16 1013.60 1014.03 1014.43 1014.79 1015.10 1015.36 1015.57 1015.73 1015.84 1015.93 1016.01 1016.08 1016.16 1016.25 1016.34 1016.44 1016.53 1016.61 1016.66 1016.68 1016.66 1016.60
1009.08 1008.31 1007.69 1007.24 1006.97 1006.89 1006.98 1007.23 1007.59 1008.04 1008.54 1009.06 1009.58 1010.08 1010.56 1011.00 1011.42 1011.83 1012.23 1012.63 1013.03 1013.43 1013.83 1014.22 1014.59 1014.92 1015.21 1015.45 1015.64 1015.78 1015.89 1015.97 1016.04 1016.10 1016.17 1016.24 1016.32 1016.40 1016.47 1016.52 1016.55 1016.54 1016.50 1016.43
Thickness
5599 5592 5587 5592 5596 5599 5599 5598 5598 5603 5607 5602 5601 5605 5612 5617 5617 5616 5617 5619 5620 5623 5626 5627 5627 5628 5628 5628 5628 5629 5628 5629 5631 5631 5630 5630 5630 5631 5632 5633 5633 5633 5633 5634
5595 5590 5595 5599 5599 5599 5599 5596 5597 5602 5606 5601 5601 5606 5615 5617 5617 5617 5616 5617 5617 5619 5620 5621 5622 5622 5622 5622 5623 5623 5624 5624 5625 5625 5625 5625 5624 5624 5625 5626 5626 5626 5626 5626
5592 5594 5598 5597 5596 5595 5595 5592 5593 5593 5598 5603 5599 5602 5613 5616 5617 5616 5616 5616 5616 5616 5616 5616 5616 5617 5617 5617 5617 5618 5618 5619 5619 5619 5618 5617 5616 5616 5616 5617 5617 5618 5619 5619
5593 5596 5595 5593 5592 5592 5588 5592 5591 5590 5585 5587 5596 5582 5605 5612 5609 5611 5611 5612 5612 5613 5613 5612 5612 5612 5612 5611 5611 5612 5612 5612 5613 5612 5611 5610 5608 5607 5608 5609 5610 5611 5611 5611
5590 5591 5589 5588 5590 5589 5587 5590 5589 5588 5584 5584 5592 5583 5597 5610 5606 5608 5609 5609 5609 5609 5609 5608 5607 5607 5606 5605 5605 5605 5605 5606 5606 5604 5603 5602 5601 5601 5601 5602 5602 5603 5602 5602
5587 5590 5588 5587 5588 5587 5586 5587 5588 5585 5579 5573 5591 5584 5592 5605 5610 5610 5609 5608 5607 5606 5605 5603 5602 5601 5599 5599 5598 5598 5598 5598 5597 5596 5595 5595 5594 5593 5593 5592 5592 5592 5592 5592
5585 5586 5586 5584 5581 5582 5581 5574 5569 5568 5566 5575 5596 5588 5594 5611 5615 5612 5608 5605 5603 5602 5599 5597 5596 5594 5592 5591 5590 5590 5590 5590 5589 5588 5587 5587 5586 5585 5584 5584 5583 5583 5583 5583
5577 5577 5581 5580 5578 5575 5576 5574 5562 5560 5567 5580 5587 5582 5599 5610 5610 5609 5605 5602 5599 5597 5595 5593 5591 5589 5586 5585 5584 5583 5583 5582 5582 5581 5580 5579 5578 5576 5576 5576 5575 5575 5575 5575
5577 5575 5578 5578 5577 5574 5572 5568 5572 5563 5567 5567 5579 5595 5600 5602 5599 5599 5596 5594 5592 5590 5589 5587 5585 5583 5581 5579 5577 5576 5575 5574 5574 5573 5572 5571 5569 5568 5567 5567 5566 5566 5566 5566
5575 5567 5574 5571 5568 5567 5567 5568 5561 5553 5552 5558 5580 5589 5586 5588 5589 5590 5588 5586 5585 5584 5582 5581 5579 5577 5574 5572 5570 5568 5567 5566 5566 5565 5564 5563 5561 5560 5559 5558 5557 5557 5557 5556
5569 5560 5563 5564 5563 5564 5559 5559 5558 5555 5557 5550 5557 5574 5593 5591 5588 5584 5582 5580 5578 5576 5575 5573 5571 5569 5567 5564 5562 5560 5559 5558 5557 5556 5555 5554 5553 5552 5551 5550 5549 5548 5547 5546
5561 5554 5550 5560 5564 5563 5561 5559 5555 5543 5547 5551 5546 5562 5589 5586 5582 5578 5574 5573 5572 5570 5567 5565 5562 5560 5557 5555 5553 5552 5551 5549 5548 5547 5546 5545 5544 5543 5542 5540 5539 5538 5537 5537
5550 5544 5538 5547 5547 5545 5547 5551 5549 5545 5538 5536 5537 5556 5576 5575 5573 5571 5567 5565 5562 5560 5559 5556 5553 5550 5548 5546 5545 5543 5542 5541 5540 5538 5537 5535 5535 5533 5532 5531 5530 5529 5528 5527
5540 5535 5533 5537 5544 5540 5538 5541 5540 5531 5518 5527 5541 5554 5562 5563 5560 5559 5557 5555 5552 5550 5548 5546 5543 5542 5540 5538 5536 5535 5533 5532 5531 5529 5527 5525 5525 5524 5522 5521 5520 5519 5518 5517
5527 5523 5530 5535 5538 5537 5536 5537 5534 5528 5527 5524 5540 5549 5556 5554 5551 5549 5548 5547 5545 5542 5540 5538 5534 5532 5531 5529 5527 5525 5524 5522 5521 5518 5517 5516 5515 5514 5513 5511 5510 5509 5508 5507
5517 5514 5517 5519 5525 5525 5526 5531 5530 5528 5529 5530 5533 5538 5548 5545 5542 5540 5539 5538 5535 5533 5532 5529 5526 5523 5521 5519 5517 5516 5514 5512 5511 5508 5507 5506 5505 5504 5502 5501 5499 5498 5496 5495
5504 5502 5500 5503 5513 5509 5509 5530 5527 5526 5530 5527 5523 5530 5531 5529 5527 5526 5526 5526 5525 5524 5522 5520 5517 5514 5511 5509 5508 5505 5504 5502 5500 5498 5496 5495 5494 5492 5491 5490 5487 5485 5484 5483
5497 5492 5485 5488 5491 5484 5522 5532 5530 5524 5522 5520 5519 5518 5518 5516 5515 5515 5515 5513 5511 5511 5509 5508 5505 5503 5501 5499 5497 5495 5493 5490 5488 5486 5485 5484 5482 5480 5479 5477 5475 5473 5472 5470
5493 5485 5476 5474 5475 5492 5514 5514 5511 5506 5504 5508 5505 5504 5503 5502 5501 5499 5502 5501 5498 5497 5496 5494 5492 5490 5489 5486 5485 5483 5481 5478 5476 5474 5473 5472 5470 5468 5467 5465 5463 5461 5460 5458
5477 5475 5465 5463 5463 5472 5499 5499 5501 5496 5485 5494 5492 5490 5488 5485 5475 5481 5487 5486 5485 5484 5482 5480 5478 5477 5475 5474 5472 5470 5468 5465 5464 5463 5462 5461 5459 5456 5455 5453 5452 5450 5448 5447
5451 5449 5449 5450 5452 5467 5484 5483 5483 5470 5472 5479 5480 5478 5475 5470 5468 5470 5473 5472 5470 5469 5468 5466 5465 5462 5461 5460 5458 5456 5454 5453 5453 5452 5450 5449 5447 5445 5443 5442 5440 5438 5436 5435
5446 5440 5440 5442 5440 5454 5468 5465 5461 5459 5463 5464 5464 5463 5461 5460 5459 5459 5458 5457 5456 5454 5454 5452 5449 5448 5447 5446 5444 5442 5441 5442 5441 5440 5438 5436 5434 5433 5432 5429 5428 5426 5424 5422
5446 5446 5444 5443 5448 5455 5454 5453 5451 5450 5448 5448 5447 5447 5446 5445 5444 5444 5443 5442 5441 5441 5439 5437 5435 5434 5433 5432 5431 5429 5429 5429 5428 5426 5425 5423 5422 5421 5420 5417 5415 5413 5411 5410
5437 5439 5436 5434 5442 5445 5443 5441 5439 5437 5435 5434 5433 5431 5431 5429 5429 5428 5428 5427 5426 5426 5424 5423 5421 5420 5420 5419 5418 5417 5417 5416 5414 5412 5411 5410 5409 5408 5407 5406 5404 5402 5400 5399
5423 5420 5419 5421 5428 5430 5431 5426 5425 5423 5421 5420 5419 5417 5416 5414 5414 5413 5413 5413 5412 5412 5410 5409 5407 5407 5407 5406 5405 5404 5403 5402 5400 5399 5398 5397 5397 5396 5395 5394 5393 5392 5392 5390
5410 5405 5401 5405 5412 5409 5411 5412 5410 5408 5406 5405 5403 5403 5402 5400 5399 5399 5398 5398 5398 5397 5396 5394 5394 5394 5393 5393 5392 5392 5391 5389 5387 5386 5385 5384 5383 5382 5381 5381 5381 5382 5381 5380